[[{"header":{"parameterUnit":"m.s-1","parameterCategory":1,"la1":30.2991,"la2":30.254,"lo1":-89.0895,"lo2":-89.0444,"dy":0.0017,"dx":0.0017,"nx":28,"ny":28,"refTime":"2025-07-26T03:00:00:Z","depth":0,"parameterNumber":2,"parameterNumberName":"U-component_of_WINDS"},"data":[0,0,0,0,0,0,0,0,0,0,0,0,0,0,0,0,0,0,0,0,0,0,0,0,0,0,0,0,0,0,0,0,0,0,0,0,0,0,0,0,0,0,0,0,0,0,0,0,0,0,0,0,0,0,0,0,0,0,-1.6383,-1.6383,0,-1.6341,-1.6341,-1.634,-1.631,-1.6309,-1.6309,-1.6309,-1.6266,-1.6265,-1.6264,0,0,0,0,0,0,0,0,0,0,0,0,0,-1.6437,-1.6436,-1.6383,-1.6383,-1.6382,-1.6341,-1.6341,-1.634,-1.631,-1.6309,-1.6309,-1.6309,-1.6266,-1.6265,-1.6264,0,0,0,0,0,0,0,0,0,0,0,0,0,-1.6406,-1.6436,-1.6383,-1.6362,-1.636,-1.6342,-1.6341,-1.634,-1.631,-1.6309,-1.6309,-1.6309,-1.6267,-1.6265,-1.6264,-1.6264,0,0,-1.626,-1.6259,0,0,0,0,0,0,0,0,-1.6408,-1.6404,-1.6366,-1.6363,-1.6361,-1.633,-1.6344,-1.6315,-1.631,-1.6329,-1.6309,-1.6308,-1.6288,-1.6285,-1.6278,-1.6262,-1.626,-1.626,-1.6259,-1.6258,-1.6258,0,0,0,0,0,0,0,-1.641,-1.6406,-1.6367,-1.6365,-1.6362,-1.6355,-1.635,-1.6338,-1.6311,-1.6327,-1.6325,-1.632,-1.6286,-1.6279,-1.6276,-1.6259,-1.626,-1.6259,-1.6258,-1.6257,-1.6241,-1.6241,0,0,0,0,0,0,-1.6416,-1.6408,-1.6368,-1.6365,-1.6384,-1.6354,-1.6349,-1.634,-1.6311,-1.6306,-1.6321,-1.6319,-1.6281,-1.6278,-1.6275,-1.6272,-1.6258,-1.6257,-1.6256,-1.624,-1.6241,-1.6241,0,0,0,0,0,0,-1.6417,-1.6412,-1.637,-1.6386,-1.638,-1.6353,-1.6345,-1.634,-1.6332,-1.6306,-1.6301,-1.6318,-1.6281,-1.6277,-1.6267,-1.627,-1.6257,-1.6255,-1.624,-1.624,-1.6241,-1.6266,0,0,0,0,0,0,-1.6418,-1.6413,-1.6412,-1.6386,-1.6379,-1.6362,-1.6345,-1.6339,-1.633,-1.6328,-1.6302,-1.6298,-1.628,-1.6269,-1.6265,-1.6268,-1.6254,-1.6239,-1.624,-1.6241,-1.6265,-1.6268,-1.627,0,0,0,0,0,-1.642,-1.6421,-1.6413,-1.6408,-1.6378,-1.6362,-1.6358,-1.6338,-1.6331,-1.633,-1.6313,-1.6299,-1.6271,-1.6268,-1.6264,-1.6266,-1.6239,-1.624,-1.6241,-1.6264,-1.6267,-1.627,0,0,0,0,0,0,-1.6449,-1.6417,-1.6407,-1.64,-1.6384,-1.6357,-1.6356,-1.6342,-1.6328,-1.6327,-1.6302,-1.6297,-1.6289,-1.6277,-1.6275,-1.6264,-1.6253,-1.6253,-1.6272,-1.6275,-1.6277,-1.628,-1.6253,0,0,0,0,0,-1.6454,-1.6444,-1.6417,-1.6413,-1.6406,-1.6382,-1.6375,-1.6361,-1.6343,-1.6336,-1.6319,-1.6302,-1.629,-1.6282,-1.6269,-1.6264,-1.6257,-1.6263,-1.6266,-1.6268,-1.6268,-1.6263,-1.6265,-1.6244,-1.6244,-1.6244,0,0,-1.6465,-1.6447,-1.6442,-1.6418,-1.6404,-1.6394,-1.6377,-1.6367,-1.6359,-1.6335,-1.6324,-1.6311,-1.6291,-1.6283,-1.6279,-1.6273,-1.6273,-1.6269,-1.6271,-1.6269,-1.6264,-1.6266,-1.6268,-1.6244,-1.6244,-1.6244,0,0,-1.6479,-1.6465,-1.6459,-1.6446,-1.6425,-1.6409,-1.6408,-1.6384,-1.6374,-1.6363,-1.6344,-1.6335,-1.6314,-1.63,-1.6291,-1.6301,-1.6286,-1.6297,-1.6309,-1.6305,-1.6307,-1.6308,-1.6311,-1.6312,-1.6297,-1.6297,-1.6298,0,-1.6495,-1.6479,-1.6458,-1.6449,-1.6439,-1.6417,-1.6412,-1.64,-1.6376,-1.6369,-1.6363,-1.6336,-1.6321,-1.631,-1.6312,-1.6306,-1.6303,-1.6299,-1.6309,-1.631,-1.6311,-1.6313,-1.6314,-1.6299,-1.6299,-1.6299,-1.6298,0,-1.6499,-1.6488,-1.6487,-1.6464,-1.6454,-1.6447,-1.6425,-1.6418,-1.6405,-1.639,-1.6379,-1.6361,-1.6343,-1.634,-1.6327,-1.6327,-1.6323,-1.6313,-1.6301,-1.6314,-1.6316,-1.6317,-1.6301,-1.63,-1.63,-1.63,0,0,-1.6529,-1.6495,-1.6494,-1.6484,-1.6459,-1.6451,-1.6443,-1.6426,-1.642,-1.6405,-1.6397,-1.638,-1.637,-1.6359,-1.6345,-1.6342,-1.635,-1.6332,-1.6331,-1.6335,-1.6347,-1.6354,-1.6355,-1.6342,-1.6342,-1.6342,-1.6349,0,-1.6538,-1.6522,-1.6503,-1.6493,-1.6483,-1.6462,-1.6455,-1.644,-1.6426,-1.6415,-1.64,-1.6388,-1.6377,-1.637,-1.6367,-1.635,-1.6352,-1.635,-1.6333,-1.6333,-1.6337,-1.6356,-1.6363,-1.6371,-1.6349,-1.6349,-1.6349,0,-1.6546,-1.6532,-1.6521,-1.6498,-1.6493,-1.6487,-1.6469,-1.646,-1.6442,-1.6432,-1.642,-1.6405,-1.6396,-1.6387,-1.6373,-1.6371,-1.6364,-1.6355,-1.6355,-1.6351,-1.6341,-1.6352,-1.6373,-1.6373,-1.635,-1.635,-1.635,0,-1.6568,-1.6546,-1.6536,-1.6528,-1.65,-1.6497,-1.6485,-1.6467,-1.6458,-1.6443,-1.6437,-1.6422,-1.6413,-1.6402,-1.6383,-1.6378,-1.6371,-1.636,-1.6362,-1.6362,-1.636,-1.636,-1.6379,-1.6358,-1.6358,-1.6358,-1.6358,0,-1.6579,-1.6573,-1.6545,-1.6539,-1.6532,-1.6511,-1.6504,-1.6491,-1.6475,-1.6466,-1.6448,-1.644,-1.6416,-1.6406,-1.6391,-1.6382,-1.6378,-1.637,-1.6366,-1.637,-1.6371,-1.6364,-1.6363,-1.6358,-1.6358,-1.6358,-1.6358,0,-1.6601,-1.6582,-1.657,-1.6545,-1.6539,-1.6535,-1.6513,-1.6507,-1.6493,-1.6482,-1.6478,-1.6455,-1.6442,-1.6422,-1.6403,-1.6393,-1.6386,-1.638,-1.6391,-1.6389,-1.6391,-1.6391,-1.6404,-1.6405,-1.6385,-1.6386,-1.6386,0,-1.6609,-1.6603,-1.6578,-1.6571,-1.656,-1.6549,-1.6539,-1.6519,-1.651,-1.649,-1.6486,-1.6471,-1.6458,-1.6437,-1.6419,-1.6404,-1.6397,-1.6403,-1.6395,-1.64,-1.6396,-1.6396,-1.6395,-1.6404,-1.6405,-1.6405,-1.6405,0,-1.6625,-1.6615,-1.6603,-1.6587,-1.6576,-1.6563,-1.6548,-1.6544,-1.652,-1.6511,-1.6497,-1.6487,-1.6468,-1.6453,-1.6436,-1.6424,-1.641,-1.6408,-1.6408,-1.6412,-1.6418,-1.6414,-1.6395,-1.6408,-1.6407,-1.6407,-1.6407,-1.6407,-1.6639,-1.6633,-1.6614,-1.66,-1.6588,-1.6575,-1.6567,-1.6552,-1.654,-1.6522,-1.6511,-1.6498,-1.648,-1.6456,-1.6445,-1.6434,-1.6428,-1.6428,-1.6427,-1.6427,-1.6429,-1.6421,-1.6431,-1.6431,-1.6431,-1.6431,-1.6431,0,-1.6652,-1.6639,-1.6627,-1.6608,-1.6597,-1.6586,-1.657,-1.6562,-1.655,-1.6535,-1.6522,-1.6506,-1.6492,-1.6473,-1.6458,-1.6452,-1.6446,-1.6449,-1.6448,-1.6446,-1.6435,-1.6436,-1.6454,-1.6454,-1.6454,-1.6454,-1.6454,-1.6454,-1.6658,-1.6647,-1.6636,-1.6619,-1.6607,-1.6593,-1.6585,-1.6573,-1.656,-1.6543,-1.6531,-1.6519,-1.6502,-1.6486,-1.6472,-1.6467,-1.6462,-1.6466,-1.6459,-1.6449,-1.6447,-1.6445,-1.6446,-1.6466,-1.6466,-1.6471,-1.6471,-1.6471]},{"header":{"parameterUnit":"m.s-1","parameterCategory":1,"la1":30.2991,"la2":30.254,"lo1":-89.0895,"lo2":-89.0444,"dy":0.0017,"dx":0.0017,"nx":28,"ny":28,"refTime":"2025-07-26T03:00:00:Z","depth":0,"parameterNumber":3,"parameterNumberName":"V-component_of_WINDS"},"data":[0,0,0,0,0,0,0,0,0,0,0,0,0,0,0,0,0,0,0,0,0,0,0,0,0,0,0,0,0,0,0,0,0,0,0,0,0,0,0,0,0,0,0,0,0,0,0,0,0,0,0,0,0,0,0,0,0,0,5.2842,5.2842,0,5.2838,5.2838,5.2838,5.2802,5.2801,5.28,5.28,5.2792,5.2793,5.2794,0,0,0,0,0,0,0,0,0,0,0,0,0,5.282,5.282,5.2842,5.2842,5.2842,5.2838,5.2838,5.2838,5.2802,5.2801,5.28,5.2799,5.2792,5.2793,5.2794,0,0,0,0,0,0,0,0,0,0,0,0,0,5.2824,5.282,5.2842,5.2824,5.2822,5.2838,5.2838,5.2838,5.2802,5.2801,5.28,5.2799,5.2792,5.2793,5.2794,5.2826,0,0,5.2797,5.2797,0,0,0,0,0,0,0,0,5.2823,5.2824,5.2827,5.2825,5.2823,5.2819,5.2827,5.2833,5.2803,5.281,5.28,5.2798,5.2802,5.2802,5.2804,5.2825,5.2825,5.2797,5.2797,5.2798,5.2798,0,0,0,0,0,0,0,5.2823,5.2824,5.284,5.2827,5.2825,5.2816,5.2815,5.2828,5.2813,5.2809,5.2807,5.2807,5.2801,5.2803,5.2804,5.2825,5.2797,5.2798,5.2798,5.2798,5.2874,5.2875,0,0,0,0,0,0,5.2826,5.2824,5.284,5.284,5.282,5.2817,5.2816,5.2822,5.2813,5.2811,5.2808,5.2805,5.2802,5.2803,5.2803,5.2842,5.2798,5.2799,5.2799,5.2873,5.2874,5.2876,0,0,0,0,0,0,5.2825,5.2827,5.2841,5.2832,5.2833,5.2819,5.2826,5.2822,5.2825,5.2812,5.2809,5.2813,5.2801,5.2802,5.2821,5.2841,5.2799,5.28,5.2871,5.2873,5.2875,5.2917,0,0,0,0,0,0,5.2825,5.2827,5.2839,5.2832,5.2833,5.2859,5.2827,5.2823,5.2827,5.2823,5.2816,5.2814,5.28,5.282,5.2822,5.2841,5.2801,5.2869,5.2872,5.2874,5.2914,5.2921,5.2926,0,0,0,0,0,5.2824,5.285,5.284,5.2842,5.2848,5.286,5.286,5.2845,5.2828,5.284,5.2833,5.2814,5.2838,5.2822,5.2824,5.2844,5.2868,5.2871,5.2874,5.2911,5.2919,5.2926,0,0,0,0,0,0,5.2859,5.2849,5.2838,5.2862,5.2863,5.2854,5.2868,5.2854,5.2858,5.2854,5.2835,5.2833,5.2856,5.2851,5.2834,5.2875,5.285,5.2854,5.2877,5.2885,5.2891,5.2892,5.2801,0,0,0,0,0,5.2869,5.288,5.2871,5.2894,5.2895,5.2882,5.2886,5.2875,5.2874,5.2873,5.2867,5.2866,5.2874,5.2879,5.2885,5.2913,5.2912,5.2928,5.2934,5.2939,5.2943,5.296,5.2967,5.2887,5.2887,5.2886,0,0,5.2891,5.2887,5.2895,5.2901,5.2899,5.2912,5.2882,5.2895,5.2904,5.2875,5.2893,5.2889,5.2886,5.2911,5.2921,5.2908,5.2965,5.2943,5.2948,5.2948,5.2964,5.2971,5.2978,5.2889,5.2888,5.2888,0,0,5.2937,5.2935,5.2955,5.2955,5.2954,5.2946,5.2951,5.2945,5.2941,5.296,5.2939,5.2949,5.2962,5.2962,5.2963,5.3012,5.2996,5.3015,5.3047,5.3063,5.307,5.3075,5.3094,5.3101,5.3018,5.3019,5.3019,0,5.2964,5.2982,5.2967,5.2982,5.2986,5.2962,5.2983,5.2983,5.2984,5.2987,5.2972,5.299,5.2986,5.3011,5.3024,5.3025,5.3031,5.3016,5.307,5.3075,5.308,5.3098,5.3105,5.3021,5.3021,5.302,5.302,0,5.3016,5.3029,5.3045,5.3048,5.3054,5.3071,5.3059,5.3066,5.3055,5.3048,5.3068,5.3064,5.307,5.3075,5.3063,5.3099,5.3091,5.3074,5.3047,5.3091,5.3107,5.3114,5.3024,5.3024,5.3023,5.3022,0,0,5.3083,5.3079,5.3086,5.3088,5.3086,5.3096,5.3113,5.312,5.3127,5.3129,5.3143,5.3156,5.3141,5.3143,5.3131,5.3146,5.3187,5.3127,5.3126,5.3139,5.3228,5.3242,5.325,5.3176,5.3177,5.3178,5.3229,0,5.3128,5.3159,5.3146,5.3177,5.319,5.3169,5.3184,5.3185,5.3179,5.3189,5.3182,5.3193,5.3171,5.3172,5.3186,5.3179,5.3205,5.3175,5.319,5.319,5.3192,5.3258,5.3273,5.332,5.3235,5.3236,5.3237,0,5.3185,5.3192,5.3225,5.3223,5.3228,5.3242,5.3249,5.3258,5.3259,5.3254,5.3258,5.3243,5.326,5.3235,5.3259,5.3239,5.3244,5.3242,5.3244,5.3245,5.3217,5.3262,5.3335,5.3343,5.3246,5.3246,5.3245,0,5.3233,5.3249,5.3272,5.3274,5.3272,5.3283,5.3282,5.3282,5.3288,5.3294,5.3297,5.3304,5.3308,5.3314,5.3303,5.3285,5.3329,5.3302,5.3326,5.3326,5.3336,5.3336,5.3412,5.3338,5.3338,5.3338,5.3338,0,5.3285,5.3307,5.3293,5.3307,5.3331,5.3317,5.3341,5.3338,5.3338,5.3351,5.3332,5.3345,5.3328,5.334,5.333,5.3353,5.3354,5.3351,5.3348,5.3353,5.3354,5.3357,5.3354,5.334,5.3339,5.3339,5.3339,0,5.3342,5.3334,5.3357,5.3355,5.3355,5.3372,5.337,5.3383,5.3377,5.3394,5.3397,5.3388,5.34,5.3389,5.34,5.3394,5.3424,5.3416,5.3425,5.3423,5.3448,5.3446,5.3529,5.354,5.3459,5.3459,5.346,0,5.3377,5.3393,5.3393,5.3401,5.3403,5.3416,5.3422,5.3409,5.3417,5.342,5.3433,5.3444,5.3453,5.3473,5.3467,5.3476,5.3469,5.3498,5.347,5.3476,5.3471,5.3471,5.3473,5.3503,5.3504,5.3505,5.3506,0,5.344,5.3436,5.3446,5.3456,5.3465,5.3472,5.3477,5.3485,5.3472,5.3481,5.3494,5.3501,5.3514,5.3526,5.3533,5.3532,5.3518,5.3515,5.3521,5.3526,5.3531,5.3531,5.3441,5.3513,5.3512,5.3512,5.3511,5.3511,5.3487,5.3502,5.3505,5.3518,5.3521,5.3527,5.354,5.3537,5.3548,5.3558,5.355,5.3566,5.3568,5.3577,5.3578,5.3591,5.3579,5.3588,5.359,5.3593,5.3597,5.3529,5.3592,5.3592,5.3592,5.3591,5.3591,0,5.3551,5.3552,5.3565,5.3574,5.3585,5.3571,5.3576,5.3586,5.3601,5.3605,5.3614,5.363,5.3642,5.3638,5.3648,5.3659,5.3653,5.3663,5.3662,5.3663,5.3607,5.3601,5.3668,5.3668,5.3668,5.3668,5.3668,5.3668,5.3585,5.361,5.3606,5.3632,5.3633,5.3651,5.3655,5.3661,5.3664,5.3684,5.3694,5.3691,5.3692,5.3703,5.3714,5.3712,5.3717,5.373,5.3726,5.3674,5.3666,5.3659,5.3654,5.3731,5.3731,5.3781,5.3782,5.3782]}]]